Regional Weather Roundup
Issued by NWS

Home | Current Version | Previous Version | Text Only | Print | Product List | Glossary On
Versions: 1 2 3 4 5 6 7 8 9 10 11 12 13 14 15 16 17 18 19 20 21 22 23 24 25 26 27 28 29 30 31 32 33 34 35 36 37 38 39 40 41 42 43 44 45 46 47 48 49 50
000
ASUS45 KTFX 091010
RWRMT
MONTANA REGIONAL WEATHER ROUNDUP
NATIONAL WEATHER SERVICE GREAT FALLS MT
300 AM MST TUE FEB 09 2016

NOTE: "FAIR" INDICATES FEW OR NO CLOUDS BELOW 12000 FEET WITH NO
SIGNIFICANT WEATHER AND/OR OBSTRUCTIONS TO VISIBILITY.

MTZ001>007-043-091100-
WEST OF THE DIVIDE

CITY           SKY/WX    TMP DP  RH WIND       PRES   REMARKS
KALISPELL      CLEAR     22  20  92 CALM      30.53S
MISSOULA       CLEAR     24  22  91 CALM      30.56R
BUTTE          CLOUDY    15  13  91 CALM      30.50S FOG
MULLAN PASS    CLEAR     37  30  75 SW7       30.49S WCI  32
ANACONDA         N/A     28  25  86 SE3       30.50S
DEER LODGE       N/A     27  27 100 CALM      30.51S
HAMILTON         N/A     28  27  93 SE3       30.53R
LIBBY            N/A     21  21 100 CALM      30.56R
PLAINS           N/A     26  21  81 CALM      30.52R
THOMPSON FALLS   N/A     24  22  92 CALM      30.55F VSB 0
$$

MTZ008-052>055-091100-
SOUTHWEST MONTANA

CITY           SKY/WX    TMP DP  RH WIND       PRES   REMARKS
BOZEMAN        CLOUDY    25  21  85 S6        30.47R WCI  18
DILLON         CLOUDY    31  24  75 SW12      30.48R WCI  22
ENNIS          CLEAR     27  23  86 CALM      30.54R
TWIN BRIDGES     N/A     25  18  74 E7        30.41R WCI  17
$$

MTZ009-010-012-014-046-048-049-054-091100-
EAST SLOPES AND CENTRAL MONTANA

CITY           SKY/WX    TMP DP  RH WIND       PRES   REMARKS
CUT BANK       PTCLDY    39  29  67 W15       30.29S WCI  31
GREAT FALLS    CLEAR     40  29  64 SW16      30.32S
MALMSTROM AFB  CLEAR     38  30  72 SW16      30.32S WCI  29
HELENA         CLOUDY    29  26  89 CALM      30.42S
CHOTEAU          N/A     48  25  40 W8        30.32S
CONRAD           N/A     42  29  60 SE7       30.27F
$$

MTZ011-013-016-021-045-047-050-051-091100-
NORTH CENTRAL MONTANA

CITY           SKY/WX    TMP DP  RH WIND       PRES   REMARKS
HAVRE          MOCLDY    34  29  82 SW12      30.28S WCI  25
LEWISTOWN      CLOUDY    37  25  61 W8        30.31S WCI  31
N BAR RANCH      N/A     45  27  49 NW17      30.28S
CHINOOK          N/A     25  21  86 CALM      30.27S
$$

MTZ017>020-022>027-061-062-091100-
NORTHEAST MONTANA

CITY           SKY/WX    TMP DP  RH WIND       PRES   REMARKS
GLASGOW        CLOUDY    30  24  78 N9        30.25S WCI  22
JORDAN           N/A     31  28  89 W8        30.25S WCI  23
SIDNEY         CLOUDY    28  18  64 S6        30.21F WCI  22
WOLF POINT     CLOUDY    29  23  78 SW7       30.24S WCI  22
PLENTYWOOD       N/A     28  21  74 W5        30.17F
POPLAR           N/A     25  21  86 W9        30.24S WCI  15
SCOBEY           N/A     30  18  61 W1        30.17S
$$

MTZ028>42-056>058-091100-
SOUTHCENTRAL AND SOUTHEAST MONTANA

CITY           SKY/WX    TMP DP  RH WIND       PRES   REMARKS
BAKER          CLOUDY    23  17  78 CALM      30.20F
BILLINGS       CLOUDY    37  27  67 SW13      30.31R WCI  29
LIVINGSTON     CLOUDY    45  25  45 SW21      30.40S
MILES CITY     CLOUDY    28  24  85 W3        30.25R
EKALAKA          N/A     31  22  69 W3        30.17S
FORSYTH          N/A     34  27  75 W9        30.27R WCI  26
LAUREL           N/A     33  20  59 SW3       30.27S
ROUNDUP          N/A     37  26  65 CALM      30.18R
$$

REGIONAL REPORTS...DAKOTAS

CITY           SKY/WX    TMP DP  RH WIND       PRES   REMARKS
WILLISTON      CLOUDY    29  21  72 S3        30.21F
MINOT          CLOUDY    26  13  57 SW5       30.22F
DICKINSON      CLOUDY    25  17  72 SE7       30.18F WCI  17
BEACH          CLOUDY    30  16  55 SW5       30.23S
CROSBY           N/A     25  23  93 S9        30.21F WCI  15
TIOGA          CLOUDY    23  21  93 S6        30.24F WCI  16
WATFORD CITY     N/A     25  21  86 SE6       30.22S WCI  18
BISMARCK       CLOUDY    25  10  53 NW3       30.27F
GRAND FORKS    CLOUDY    10   3  73 NW13      30.25F WCI  -5
FARGO          CLEAR      4  -1  80 NW9       30.25S WCI -10
BUFFALO SD       N/A     24  14  65 W6        30.14F WCI  17
RAPID CITY     CLEAR     25  15  66 CALM      30.22S
$$

REGIONAL REPORTS...WYOMING/IDAHO/WASHINGTON

CITY           SKY/WX    TMP DP  RH WIND       PRES   REMARKS
GILLETTE       CLEAR     33  27  78 W13       30.26S WCI  24
SHERIDAN       CLEAR     38  28  67 W6        30.29S
BUFFALO WY     CLEAR     41  27  57 NW7       30.29R
CODY           CLOUDY    28  18  64 CALM      30.34S
YELLOWSTONE LA   N/A     12   9  87 CALM      30.56F
IDAHO FALLS    FOG       16  13  88 N6        30.62S VSB 1/4 WCI   7
SALMON         CLOUDY    10   7  85 CALM      30.66S
BOISE          CLOUDY    31  26  82 S5        30.62S
SPOKANE        PTCLDY    33  29  85 NE9       30.49S WCI  25
$$

REGIONAL REPORTS...ALBERTA

CITY           SKY/WX    TMP DP  RH WIND       PRES   REMARKS
EDMONTON       MOCLDY    37  27  65 W7        30.14F
CALGARY        PTCLDY    45  19  36 CALM      30.24R
LETHBRIDGE     CLEAR     45  30  57 W22G30    30.26R
MEDICINE HAT   PTCLDY    28  28 100 SW9       30.23F WCI  20
$$

REGIONAL REPORTS...SASKATCHEWAN

CITY           SKY/WX    TMP DP  RH WIND       PRES   REMARKS
SWIFT CURRENT  CLOUDY    32  27  80 W12       30.20S WCI  23
REGINA         MOCLDY    23  21  93 CALM      30.18R
SASKATOON      CLOUDY    21  19  93 SW5       30.24R
$$



USA.gov is the U.S. government's official web portal to all federal, state and local government web resources and services.